Location: Kokotek
(50.5971°N, 18.7052°E)
Time: 07:50:57
(UTC+00:00)

Daily predictions for brighter satellites

Satellite Brightness Start Highest point End
(mag) Time Altitude Azimuth Time Altitude Azimuth Time Altitude Azimuth
NOSS 3-4 (C) 4.3 18:53:23 10° NW 18:59:42 54° NE 19:07:07 10° ESE
DEBRIS 3.0 18:58:07 10° WSW 19:00:43 57° SSE 19:07:20 10° E
Meteor 2-12 Rocket 4.5 18:56:18 10° N 19:02:25 78° E 19:08:32 10° SSE
Cosmos 2237 4.4 18:56:41 10° NNW 19:02:27 83° WSW 19:08:12 10° SSE
Cosmos 2082 Rocket 2.2 18:57:48 10° SSW 19:03:30 74° ESE 19:09:13 10° NNE
Cosmos 2016 Rocket 4.0 18:58:07 10° S 19:04:21 79° E 19:10:32 10° NNE
Cosmos 2369 4.0 19:01:16 10° NNW 19:06:58 71° WSW 19:12:39 10° SSE
ATLAS 2AS CENTAUR R/B 4.3 19:02:22 10° W 19:08:45 38° NNW 19:15:04 10° NE
CZ-4C R/B 3.0 19:08:35 10° WSW 19:12:55 50° NW 19:18:33 10° NE
IRS-1A Rocket 4.5 19:09:52 10° SSE 19:15:43 89° WSW 19:21:42 10° NNW
CZ-4B R/B 3.8 19:15:28 10° SE 19:18:23 27° ENE 19:21:22 10° N
Cosmos 2151 3.4 19:15:02 10° N 19:19:00 43° ENE 19:22:53 10° SSE
USA 306 2.8 19:17:14 10° W 19:20:24 45° NNW 19:22:34 10° ENE
Ariane Rocket 3.9 19:19:10 10° SE 19:23:45 36° ENE 19:28:22 10° N
Cosmos 1626 Rocket 3.6 19:19:34 10° N 19:23:57 67° E 19:28:19 10° SSE
Cosmos 2278 4.0 19:19:33 10° NNW 19:25:15 63° ENE 19:30:44 11° SE
Cosmos 1782 3.3 19:25:12 10° SSW 19:28:38 52° WNW 19:32:07 10° N
Spot 2 Rocket 3.5 19:23:55 10° SSE 19:28:57 89° W 19:34:01 10° NNW
SL-16 R/B 2.3 19:23:39 10° NNW 19:29:22 81° ENE 19:34:53 11° SSE
Cosmos 1607 4.3 19:24:44 10° SW 19:30:54 71° NW 19:37:12 10° NE
ERS-1 Rocket 4.1 19:27:28 10° S 19:32:14 43° W 19:37:01 10° NNW
SPOT 3 Rocket 3.8 19:28:51 10° SE 19:33:48 54° ENE 19:38:48 10° N
MOS 1-B 4.4 19:31:00 10° SSE 19:36:49 86° WSW 19:42:41 10° NNW
Cosmos 1980 Rocket 4.3 19:38:43 10° NW 19:42:58 22° W 19:47:12 10° SSW
Cosmos 2061 Rocket 4.1 19:37:30 10° S 19:43:45 85° W 19:50:08 10° N
CZ-4 R/B 3.8 19:42:29 10° SW 19:44:50 16° W 19:47:11 10° NW
USA 186 1.7 19:42:50 11° S 19:45:25 61° W 19:48:10 10° NNW
Cosmos 2228 3.9 19:42:28 10° SSW 19:46:27 48° WNW 19:50:26 10° N
USA 290 3.7 19:45:44 16° SE 19:46:42 19° ESE 19:48:59 10° ENE
SL-08 R/B 3.6 19:42:24 10° NNE 19:47:13 73° WNW 19:51:56 10° SSW
COSMOS 2406 3.2 19:41:40 10° SSW 19:47:24 78° ESE 19:53:10 10° NNE
CZ-4B R/B 3.6 19:43:25 13° SE 19:47:30 57° ENE 19:52:18 10° N
Cosmos 1933 3.2 19:45:11 10° S 19:48:54 59° E 19:52:41 10° NNE
ISS -3.5 19:47:58 10° W 19:51:18 71° N 19:54:40 10° E
Cosmos 1461 2.4 19:47:50 10° SSW 19:51:31 73° SE 19:55:12 10° NE
Cosmos 1992 Rocket 4.2 19:46:27 10° SSW 19:51:39 75° WNW 19:56:53 10° NNE
NOSS 3 (A) 4.0 19:49:26 10° NW 19:51:40 88° NE 19:53:22 21° SE
Terra 3.5 19:48:38 10° SSW 19:52:46 31° W 19:56:56 10° NNW
Okean 1 4.5 19:51:56 16° SE 19:53:34 22° E 19:56:24 10° NE
Meteor 1-20 Rocket 4.3 19:48:07 10° NNW 19:53:45 83° W 19:59:21 10° S
Okean O Rocket 2.3 19:53:01 10° S 19:57:12 50° W 20:01:24 10° NNW
Cosmos 1777 Rocket 4.1 19:53:55 10° NNW 19:59:10 72° ENE 20:03:12 17° SSE
Cosmos 2333 Rocket 2.4 19:53:58 10° NNW 19:59:39 72° WSW 20:04:29 15° SSE
Cosmos 1544 Rocket 3.7 20:00:36 10° SSW 20:04:55 74° W 20:09:15 10° N
NOSS 3-3 (A) 4.3 20:00:31 10° WSW 20:05:48 65° NW 20:12:16 10° NE
Cosmos 1437 Rocket 2.6 20:03:52 10° SSW 20:07:24 76° WNW 20:11:02 10° N
Cosmos 1503 Rocket 4.1 20:03:57 10° NNW 20:09:08 68° ENE 20:12:49 19° SE
Cosmos 2360 Rocket 2.2 20:04:02 10° NNW 20:09:45 85° ENE 20:13:59 19° SSE
Okean 1-7 Rocket 3.7 20:05:27 10° N 20:09:54 65° ENE 20:13:00 20° SSE
Cosmos 1891 Rocket 4.5 20:10:56 10° S 20:17:03 83° W 20:23:08 10° N
Cosmos 2034 Rocket 4.4 20:13:54 17° SSE 20:18:29 46° E 20:24:29 10° NNE
Okean-O 4.1 20:15:34 10° SSW 20:19:30 32° W 20:23:27 10° NNW
Cosmos 2333 4.2 20:13:58 10° NNW 20:19:44 86° ENE 20:23:47 20° SSE
Cosmos 1486 Rocket 4.2 20:14:49 10° NNW 20:20:05 72° WSW 20:23:55 19° SSE
CZ-2C R/B 1.8 20:21:09 32° SSE 20:22:15 83° ENE 20:25:03 10° NNW
Cosmos 2219 Rocket 2.3 20:16:49 10° NNW 20:22:30 71° ENE 20:26:24 21° SE
Cosmos 1766 4.3 20:20:15 10° NNE 20:22:58 24° ENE 20:24:01 20° ESE
Cosmos 1354 Rocket 4.2 20:18:53 10° NNW 20:24:07 64° ENE 20:27:29 22° SE
Nadezhda 4 Rocket 3.9 20:24:43 10° N 20:30:53 89° E 20:35:27 19° S
IRS-1C Rocket 4.3 20:27:08 17° S 20:31:11 68° WSW 20:36:28 10° NNW
Cosmos 540 Rocket 3.8 20:28:07 20° S 20:31:23 46° ESE 20:36:18 10° NE
Cosmos 1825 Rocket 3.5 20:29:54 10° N 20:34:16 87° W 20:36:52 24° S
Cosmos 1805 3.5 20:31:38 10° NNW 20:34:48 48° W 20:36:34 22° SSW
Cosmos 220 Rocket 4.4 20:33:43 10° SW 20:37:43 58° WNW 20:41:48 10° NNE
Meteor 2-10 4.4 20:33:01 10° NNW 20:38:46 74° W 20:42:50 20° S
Aureole 1 Rocket 4.2 20:34:20 10° NNW 20:40:00 61° ENE 20:44:26 22° SE
Cosmos 1953 Rocket 3.6 20:36:42 10° N 20:41:03 66° ENE 20:43:09 29° SSE
Helios 1A 3.8 20:38:01 10° NE 20:41:30 29° E 20:42:24 26° ESE
Cosmos 2322 Rocket 2.6 20:36:38 10° NW 20:42:10 55° WSW 20:45:49 21° S
RESURS DK-1 3.7 20:39:40 10° NNW 20:43:15 30° NE 20:45:33 17° E
USA 306 2.9 20:45:26 10° WNW 20:47:33 26° N 20:47:38 26° N
Cosmos 2082 Rocket 4.4 20:43:18 10° W 20:48:08 27° NW 20:53:00 10° NNE
Cosmos 2195 Rocket 4.4 20:42:52 10° N 20:49:09 85° E 20:53:05 24° SSE
TSX-5 4.2 20:47:04 10° NNW 20:50:03 39° NE 20:51:16 27° E
NOSS 3-4 (A) 4.3 20:43:34 10° NW 20:50:06 52° SW 20:55:06 22° S
NOSS 3-4 (C) 4.2 20:44:11 10° NW 20:50:45 53° SW 20:55:45 22° S
Cosmos 1707 2.4 20:52:04 41° E 20:52:04 41° E 20:54:47 10° NNE
CZ-4B R/B 4.4 20:49:58 14° SW 20:52:07 24° W 20:55:00 10° NW
Cosmos 2026 Rocket 4.0 20:46:46 10° N 20:53:12 79° E 20:57:08 25° SSE
Geosat 4.5 20:48:53 10° NE 20:53:36 40° ESE 20:55:36 28° SSE
Cosmos 2058 Rocket 3.4 20:53:53 31° SE 20:55:28 47° E 20:59:38 10° NNE
Cosmos 2098 Rocket 3.9 20:53:24 11° SSW 20:57:44 47° WNW 21:01:40 10° N
Cosmos 1076 Rocket 3.6 20:54:03 10° NNW 20:58:17 68° W 21:00:20 29° S
Cosmos 44 3.5 20:54:31 10° NW 20:59:58 88° SW 21:02:45 29° SE
Cosmos 2237 Rocket 3.8 20:55:40 10° NNW 21:00:33 28° NE 21:05:22 10° ESE
Ariane Rocket 4.1 20:59:02 16° SSW 21:02:36 37° W 21:07:19 10° NNW
SL-16 R/B 4.1 21:08:50 10° NW 21:12:46 20° W 21:16:42 10° SW
Meteor 1-26 Rocket 4.1 21:09:41 25° S 21:13:00 83° ESE 21:18:46 10° NNE
COSMOS 2428 3.0 21:08:45 10° NNW 21:14:26 62° NE 21:17:37 26° SE
Cosmos 1763 Rocket 3.7 21:10:53 14° SSW 21:15:28 75° WNW 21:20:46 10° NNE
Cosmos 1470 3.0 21:12:31 10° N 21:15:40 39° ENE 21:16:07 36° E
ARIANE 5 R/B 3.5 21:15:19 26° ESE 21:17:10 39° ENE 21:21:20 10° N
ALOS 2 3.7 21:17:23 24° ESE 21:19:13 34° ENE 21:23:12 10° N
USA 290 4.0 21:18:06 12° WSW 21:20:37 30° WNW 21:23:28 10° N
Cosmos 1898 Rocket 3.6 21:16:47 10° NNW 21:21:58 67° ENE 21:24:23 32° SE
Helios 1B rocket 1.9 21:24:22 55° SSE 21:25:03 79° ENE 21:28:34 10° NNW
Meteor 2-2 Rocket 4.2 21:22:13 27° S 21:25:28 87° E 21:31:18 10° NNE
ISS -3.9 21:24:49 10° WNW 21:28:09 69° SSW 21:28:15 68° S
Cosmos 1726 Rocket 4.5 21:25:49 18° SW 21:28:21 39° WNW 21:32:12 10° N
BREEZE-M DEB (TANK) 3.7 21:27:51 10° W 21:28:12 13° W 21:28:12 13° W
Cosmos 1536 3.0 21:32:30 10° NNW 21:36:08 55° W 21:36:59 43° SW
CSL-04 DEB 4.0 21:36:01 58° SSE 21:36:40 90° WSW 21:40:20 10° NNW
Cosmos-2242 3.5 21:37:47 29° SW 21:39:38 53° WNW 21:43:41 10° N
Cosmos 1092 Rocket 4.3 21:35:56 10° NNW 21:41:57 58° W 21:45:20 27° SSW
Cosmos 2333 Rocket 4.5 21:40:28 10° WNW 21:42:55 13° W 21:45:22 10° WSW
NOSS 0 Rocket 3.9 21:37:25 10° NNW 21:43:39 79° ENE 21:46:51 30° SE
KORONAS-FOTON 3.7 21:43:53 50° SW 21:44:29 61° WNW 21:47:52 10° N
Cosmos 2297 Rocket 3.1 21:46:14 29° SE 21:47:30 32° ESE 21:52:26 10° NE
Cosmos 841 Rocket 3.6 21:47:27 39° SSE 21:49:11 60° ESE 21:54:21 10° NNE
Meteor 1-14 Rocket 4.1 21:46:50 10° NNW 21:52:25 85° WSW 21:54:40 37° S
Cosmos 2360 Rocket 4.1 21:49:13 10° WNW 21:52:59 18° W 21:55:44 13° SW
Cosmos 1842 3.0 21:56:49 55° W 21:57:01 56° WNW 22:00:08 10° N
Cosmos 2322 3.8 21:52:31 10° NW 21:58:09 63° WSW 22:00:18 37° S
Cosmos 1975 2.4 21:55:05 10° NNW 21:58:47 81° W 21:59:14 66° SSW
Spot 4 3.7 21:57:15 43° SSE 21:58:50 89° WSW 22:03:40 10° NNW
ACS3 Solar Sail 3.7 21:56:36 10° NE 21:59:51 15° E 22:02:41 11° ESE
Meteor 2-6 Rocket 4.4 21:58:28 29° SSW 22:01:38 75° WNW 22:07:36 10° N
Cosmos 1812 Rocket 3.6 22:02:59 49° SSE 22:03:59 65° E 22:08:23 10° NNE
Cosmos 2221 2.3 22:03:18 54° S 22:04:14 87° ESE 22:08:27 10° N
Cosmos 2219 Rocket 3.8 22:01:34 10° NW 22:05:54 23° WSW 22:08:05 18° SW
Cosmos 1271 Rocket 2.8 22:06:21 49° WSW 22:06:48 54° WNW 22:10:07 10° N
MetOp-A 4.3 22:05:00 32° SE 22:06:54 51° ENE 22:11:23 10° N
Helios 1A 4.4 22:12:43 10° N 22:16:08 29° WNW 22:18:07 19° WSW
ARGOS Delta rocket 4.0 22:11:20 10° NNE 22:16:33 84° ESE 22:18:32 40° S
Cosmos 2279 Rocket 4.3 22:16:39 28° SSW 22:20:03 63° WNW 22:26:18 10° N
RESURS DK-1 3.1 22:16:59 10° NW 22:20:37 35° WSW 22:20:45 35° WSW
Meteor 2-20 4.5 22:19:22 36° SSE 22:21:53 69° E 22:27:56 10° NNE
NOSS 8 (F) 4.4 22:19:30 10° NW 22:22:21 63° NE 22:22:21 63° NE
Cosmos 858 Rocket 4.4 22:21:11 10° NNW 22:26:22 73° WSW 22:27:57 44° S
Meteor 1-19 Rocket 4.4 22:24:37 34° SSW 22:27:16 76° WNW 22:33:16 10° N
Cosmos 1937 Rocket 3.8 22:23:49 10° NNW 22:28:46 50° WSW 22:30:09 39° SSW
CZ-2C R/B 4.2 22:28:09 10° N 22:32:30 52° WNW 22:34:15 32° SW
SL-16 R/B 3.4 22:28:27 10° NNW 22:33:46 38° NE 22:38:56 10° ESE
GP-B 3.0 22:30:48 10° N 22:35:11 86° W 22:36:11 53° S
CZ-2C R/B 2.6 22:39:09 37° SSE 22:41:16 74° ENE 22:46:28 10° NNW
Lacrosse 4 Rocket 1.6 22:42:44 47° ESE 22:42:49 47° ESE 22:46:45 10° NE
Cosmos 2237 Rocket 2.2 22:39:27 10° NNW 22:45:07 70° WSW 22:47:09 40° S
SeaSat 1 3.2 22:42:54 19° ESE 22:46:13 49° NE 22:50:56 10° NNW
USA 234 3.3 22:40:00 10° ENE 22:46:27 58° SE 22:49:36 31° SSW
Cosmos 2266 Rocket 4.2 22:42:06 10° NNW 22:47:59 57° W 22:50:26 34° SSW
Cosmos 1980 3.8 22:43:46 10° NW 22:49:20 61° WSW 22:51:12 40° S
Intercosmos 24 3.8 22:49:26 10° NNW 22:53:13 58° W 22:53:29 56° WSW
ARIANE 5 R/B 3.9 22:52:41 26° WSW 22:53:34 28° W 22:57:25 10° NW
ATLAS 2AS CENTAUR R/B 4.0 22:47:47 10° NW 22:54:09 40° NNE 23:00:30 10° E
ALOS 2 3.7 22:54:46 29° WSW 22:55:34 31° W 22:59:30 10° NNW
Cosmos 2227 Rocket 2.7 22:55:49 35° SSE 22:57:34 46° ESE 23:02:58 10° NE
COSMOS 2428 3.9 22:53:35 10° NW 22:58:15 27° WSW 22:59:35 24° SW
Meteor 2-4 Rocket 3.6 23:00:13 41° S 23:02:14 86° E 23:07:49 10° NNE
BlueWalker 3 2.5 23:05:21 39° ESE 23:05:21 39° ESE 23:07:54 10° ENE
Cosmos 2263 Rocket 3.1 23:03:56 28° SE 23:05:39 35° ESE 23:10:39 10° NE
CZ-2C R/B 3.3 23:01:06 10° NNE 23:06:53 79° WNW 23:09:26 35° SSW
Cosmos 1125 Rocket 4.2 23:03:59 10° NNW 23:09:11 51° ENE 23:12:45 19° SE
Cosmos 1766 Rocket 3.7 23:05:07 10° NNW 23:09:20 55° W 23:10:08 47° SW
Cosmos 1758 3.8 23:06:57 10° N 23:10:27 45° ENE 23:11:14 38° ESE
Cosmos 1238 Rocket 3.2 23:14:04 46° SW 23:14:58 58° WNW 23:19:21 10° N
Cosmos 1655 Rocket 4.1 23:15:22 10° NNW 23:21:32 63° W 23:24:14 34° SSW
SWARM C 4.3 23:19:47 10° N 23:23:03 86° E 23:23:05 86° ESE
Cosmos 192 4.5 23:18:13 10° NNW 23:23:03 56° WSW 23:24:20 43° SSW
SWARM A 4.1 23:19:55 10° N 23:23:10 72° E 23:23:15 72° ESE
Cosmos 1814 Rocket 3.9 23:21:58 41° SSW 23:23:51 85° ESE 23:29:08 10° NNE
Alouette 2 Rocket 4.1 23:23:38 10° NNW 23:27:20 46° W 23:28:18 39° SW
Meteor 2-11 Rocket 4.4 23:22:18 10° NNW 23:28:25 76° W 23:31:13 34° S
Meteor 1-27 Rocket 4.3 23:25:49 28° SW 23:28:38 49° WNW 23:34:11 10° N
Meteor 2-10 Rocket 3.8 23:24:28 10° NNW 23:29:57 65° W 23:32:13 36° SSW
Cosmos 2297 Rocket 2.8 23:27:59 23° WSW 23:31:17 52° NW 23:36:50 10° NNE
Cosmos 1340 Rocket 3.3 23:27:42 10° N 23:31:27 50° ENE 23:32:47 34° SE
CENTAUR R/B 4.2 23:31:16 12° SE 23:33:49 15° ESE 23:37:17 10° ENE
Cosmos 1151 Rocket 3.5 23:34:52 36° SSE 23:36:13 52° E 23:40:25 10° NNE
BREEZE-M DEB (TANK) 3.8 23:39:17 28° SE 23:39:17 28° SE 23:42:08 10° ESE
DELTA 2 DEB (DPAF) 3.5 23:34:56 10° NNE 23:38:30 75° ESE 23:39:02 60° SSE
SL-14 R/B 3.1 23:39:49 57° SSW 23:40:33 88° WNW 23:44:21 10° N
CZ-4C R/B 2.8 23:37:54 10° NNE 23:41:20 81° WNW 23:41:47 64° SW
Cosmos 1244 Rocket 4.4 23:35:40 10° NNW 23:41:48 73° W 23:44:47 32° S
Cosmos 158 Rocket 4.2 23:39:40 32° SW 23:42:07 65° WNW 23:47:26 10° NNE
ACS3 Solar Sail 1.7 23:37:10 10° NNE 23:43:11 78° ESE 23:46:10 32° S
Cosmos 1953 4.0 23:41:31 10° NNE 23:44:35 25° ENE 23:46:58 14° ESE
Landsat 5 3.8 23:43:21 10° N 23:47:20 53° WNW 23:48:28 39° WSW
Cosmos 1500 Rocket 3.5 23:44:49 10° N 23:49:17 86° E 23:50:57 38° SSE
IDEFIX/ARIANE 42P 3.8 23:44:57 10° NNE 23:49:38 32° E 23:52:42 18° SSE
Cosmos 1703 4.1 23:54:48 27° ESE 23:55:32 30° E 23:58:24 10° NNE
